CW0238 Weather Reports


Display with metric or nautical units.
time (UTC)temp
F
wind
direction
speed
MPH
gust
MPH
rain 1hr
in
rain 24hr
in
rain mn
in
humidity
%
barometer
mb
20260502182334 55 284 3.0 7.0 0.00 0.00 0.00 60 1018.8
20260502182105 55 345 2.0 7.0 0.00 0.00 0.00 62 1018.8
20260502181334 55 268 2.0 7.0 0.00 0.00 0.00 63 1018.8
20260502180832 55 289 1.0 4.0 0.00 0.00 0.00 64 1018.7
20260502180332 53 327 1.0 4.0 0.00 0.00 0.00 64 1018.8
20260502170309 52 304 1.0 3.0 0.00 0.00 0.00 64 1019.3
20260502164304 52 304 0.0 0.0 0.00 0.00 0.00 67 1019.3
20260502163803 52 304 0.0 0.0 0.00 0.00 0.00 65 1019.3
20260502163303 52 304 0.0 2.0 0.00 0.00 0.00 66 1019.3
20260502162802 52 304 1.0 4.0 0.00 0.00 0.00 67 1019.3
20260502162524 52 302 1.0 4.0 0.00 0.00 0.00 64 1019.4
20260502161757 52 306 1.0 2.0 0.00 0.00 0.00 65 1019.5
20260502161255 52 306 0.0 2.0 0.00 0.00 0.00 66 1019.4
20260502160752 51 306 0.0 3.0 0.00 0.00 0.00 67 1019.5
20260502160253 51 306 0.0 3.0 0.00 0.00 0.00 66 1019.5
20260502151738 50 306 0.0 2.0 0.00 0.00 0.00 71 1019.3
20260502150730 49 306 0.0 2.0 0.00 0.00 0.00 70 1019.3
20260502150227 49 306 0.0 2.0 0.00 0.00 0.00 68 1019.5
20260502130656 45 314 0.0 0.0 0.00 0.00 0.00 87 1019.2
20260502130156 45 314 0.0 0.0 0.00 0.00 0.00 88 1019.1
20260502123645 43 314 0.0 0.0 0.00 0.00 0.00 91 1019.1
20260502123412 43 314 0.0 0.0 0.00 0.00 0.00 92 1019.0
20260502122639 43 314 0.0 0.0 0.00 0.00 0.00 92 1018.9
20260502122404 43 314 0.0 1.0 0.00 0.00 0.00 92 1019.0
20260502121638 42 314 0.0 1.0 0.00 0.00 0.00 92 1018.9
20260502121138 42 314 0.0 1.0 0.00 0.00 0.00 92 1018.8
20260502120637 42 314 0.0 1.0 0.00 0.00 0.00 93 1018.8
20260502120136 41 314 0.0 0.0 0.00 0.00 0.00 93 1018.7
20260502115636 41 314 0.0 0.0 0.00 0.00 0.00 93 1018.7
20260502115131 40 314 0.0 0.0 0.00 0.00 0.00 93 1018.5
20260502114631 40 314 0.0 0.0 0.00 0.00 0.00 93 1018.5
20260502114131 40 314 0.0 0.0 0.00 0.00 0.00 93 1018.5
20260502113849 40 314 0.0 0.0 0.00 0.00 0.00 93 1018.2
20260502113124 40 314 0.0 0.0 0.00 0.00 0.00 93 1018.2
20260502112625 40 314 0.0 0.0 0.00 0.00 0.00 93 1018.3
20260502112123 39 314 0.0 0.0 0.00 0.00 0.00 93 1018.4
20260502111627 39 314 0.0 0.0 0.00 0.00 0.00 93 1018.4
20260502111120 39 314 0.0 0.0 0.00 0.00 0.00 93 1018.4
20260502110617 39 314 0.0 0.0 0.00 0.00 0.00 93 1018.5
20260502110121 39 314 0.0 0.0 0.00 0.00 0.00 93 1018.3
20260502105113 38 314 0.0 1.0 0.00 0.00 0.00 93 1018.1
20260502104610 38 314 0.0 1.0 0.00 0.00 0.00 93 1018.2
20260502104327 38 314 0.0 0.0 0.00 0.00 0.00 93 1018.2
20260502103604 38 314 0.0 0.0 0.00 0.00 0.00 92 1018.1
20260502103104 38 314 0.0 0.0 0.00 0.00 0.00 93 1018.1
20260502102602 38 314 0.0 0.0 0.00 0.00 0.00 93 1018.1
20260502102057 38 314 0.0 0.0 0.00 0.00 0.00 93 1018.0
20260502101557 38 314 0.0 0.0 0.00 0.00 0.00 93 1018.0
20260502101053 38 314 0.0 0.0 0.00 0.00 0.00 93 1018.0
20260502100555 38 314 0.0 0.0 0.00 0.00 0.00 92 1018.0
20260502100333 38 314 0.0 0.0 0.00 0.00 0.00 92 1018.1
20260502091040 39 314 0.0 0.0 0.00 0.00 0.00 92 1018.0
20260502090538 39 314 0.0 0.0 0.00 0.00 0.00 92 1018.0
20260502071504 40 314 0.0 0.0 0.00 0.00 0.00 91 1017.8
20260502070959 40 314 0.0 0.0 0.00 0.00 0.00 91 1018.0
20260502070521 40 314 0.0 0.0 0.00 0.00 0.00 91 1017.8
20260502070000 40 314 0.0 0.0 0.00 0.00 0.00 91 1017.8
20260502065459 40 314 0.0 0.0 0.00 0.00 0.00 90 1017.8
20260502065001 40 314 0.0 0.0 0.00 0.00 0.00 90 1017.9
20260502064718 40 314 0.0 0.0 0.00 0.00 0.00 90 1017.9
20260502063956 40 314 0.0 0.0 0.00 0.00 0.00 90 1017.9
20260502063718 40 314 0.0 0.0 0.00 0.00 0.00 90 1018.0
20260502062953 40 314 0.0 0.0 0.00 0.00 0.00 91 1018.1
20260502062450 40 314 0.0 0.0 0.00 0.00 0.00 91 1018.1
20260502061947 40 314 0.0 0.0 0.00 0.00 0.00 90 1018.2
20260502061709 40 314 0.0 0.0 0.00 0.00 0.00 90 1018.1
20260502060947 40 314 0.0 0.0 0.00 0.00 0.00 90 1018.1
20260502060443 40 314 0.0 0.0 0.00 0.00 0.00 90 1018.1
20260502060219 40 314 0.0 0.0 0.00 0.00 0.00 90 1018.1
20260502055440 41 314 0.0 0.0 0.00 0.00 0.00 89 1018.0
20260502054940 41 314 0.0 0.0 0.00 0.00 0.00 89 1018.1
20260502054437 41 314 0.0 0.0 0.00 0.00 0.00 89 1018.1
20260502053437 41 314 0.0 0.0 0.00 0.00 0.00 89 1018.3
20260502052935 41 314 0.0 0.0 0.00 0.00 0.00 88 1018.4
20260502052436 42 314 0.0 0.0 0.00 0.00 0.00 88 1018.5
20260502051931 42 314 0.0 0.0 0.00 0.00 0.00 88 1018.4
20260502051653 42 314 0.0 0.0 0.00 0.00 0.00 88 1018.5
20260502050928 42 314 0.0 0.0 0.00 0.00 0.00 88 1018.4
20260502050423 42 314 0.0 0.0 0.00 0.00 0.00 88 1018.5
20260502045922 42 314 0.0 0.0 0.00 0.00 0.00 88 1018.5
20260502045421 42 314 0.0 0.0 0.00 0.00 0.00 88 1018.4
20260502044927 42 314 0.0 0.0 0.00 0.00 0.00 87 1018.4
20260502044422 42 314 0.0 0.0 0.00 0.00 0.00 87 1018.4
20260502043917 42 314 0.0 0.0 0.00 0.00 0.00 87 1018.3
20260502043416 43 314 0.0 0.0 0.00 0.00 0.00 87 1018.5
20260502042914 43 314 0.0 0.0 0.00 0.00 0.00 87 1018.4
20260502042641 43 314 0.0 0.0 0.00 0.00 0.00 87 1018.5